Flag for U.S.A. Weather past 2 weeks in Canton, Ohio, U.S.A.

Now
56 °F

Passing clouds.


Feels Like: 54 °F
Forecast: 38 / 72 °F
Wind: 7 mph from South

Location: Akron-Canton Regional Airport

Current Time: May 23, 2015 at 9:50:18 AM

Latest Report: May 23, 2015 at 8:51 AM


Visibility: 10 mi

Pressure: 30.44 "Hg

Humidity: 37%

Dew point: 30 °F

Location of CantonLocation

Historic Weather in Canton — Graph

°F

Canton temperature yesterday

Maximum temperature yesterday: 66 °F (at 1:51 PM)
Minimum temperature yesterday: 46 °F (at 1:51 AM)
Average temperature yesterday: 55 °F

Past Weeks' High & Low Weather Summary

 TemperatureHumidityPressure
High87 °F (May 8, 1:51 PM)93% (May 17, 2:51 AM)30.49 "Hg (May 17, 2:51 AM)
Low37 °F (May 14, 3:51 AM)26% (May 22, 4:51 PM)29.85 "Hg (May 11, 5:51 PM)
Average64 °F63%30.11 "Hg
* Reported May 8 8:51 AM — May 23 8:51 AM, Canton, Weather by CustomWeather, © 2015

Note: Actual official high and low records may vary slightly from our data, if they occured in-between our weather recording intervals... More about our weather records

Advertising

Canton weather history for previous 24 hours

 ConditionsComfort  
Time TempWeatherWind HumidityBarometerVisibility
8:51 AM
Sat, May 23
56 °FPassing clouds.N/A37%30.44 "Hg10 mi
7:51 AM50 °FPassing clouds.8 mph50%30.43 "Hg10 mi
6:51 AM44 °FPassing clouds.N/A63%30.41 "Hg10 mi
5:51 AM44 °FPassing clouds.3 mph58%30.39 "Hg10 mi
4:51 AM45 °FPassing clouds.5 mph56%30.36 "Hg10 mi
3:51 AM45 °FPassing clouds.3 mph56%30.34 "Hg10 mi
2:51 AM45 °FPassing clouds.3 mph56%30.34 "Hg10 mi
1:51 AM46 °FPassing clouds.3 mph51%30.33 "Hg10 mi
12:51 AM47 °FPassing clouds.6 mph50%30.32 "Hg10 mi
11:51 PM
Fri, May 22
47 °FPassing clouds.8 mph52%30.32 "Hg10 mi
10:51 PM49 °FPassing clouds.7 mph50%30.32 "Hg10 mi
9:51 PM52 °FPassing clouds.3 mph47%30.30 "Hg10 mi
8:51 PM53 °FScattered clouds.6 mph45%30.27 "Hg10 mi
7:51 PM58 °FPassing clouds.13 mph38%30.25 "Hg10 mi
6:51 PM62 °FPassing clouds.8 mph31%30.24 "Hg10 mi
5:51 PM64 °FSunny.12 mph29%30.23 "Hg10 mi
4:51 PM66 °FSunny.12 mph26%30.20 "Hg8 mi
3:51 PM65 °FPassing clouds.15 mph28%30.20 "Hg8 mi
2:51 PM66 °FPassing clouds.10 mph27%30.19 "Hg10 mi
1:51 PM66 °FScattered clouds.14 mph27%30.18 "Hg10 mi
12:51 PM64 °FBroken clouds.14 mph29%30.16 "Hg10 mi
11:51 AM64 °FScattered clouds.13 mph41%30.15 "Hg10 mi
10:51 AM62 °FScattered clouds.14 mph50%30.12 "Hg10 mi
9:51 AM60 °FScattered clouds.9 mph53%30.11 "Hg10 mi
Weather by CustomWeather, © 2015

See weather overviewHow to use our weather pages